Torna al catalogo

STARLINK-4589

AttivoComunicazioniVLEO
NORAD 53746·PAYLOAD·🇺🇸 United States

Lanciato Sep 5, 2022 da Cape Canaveral Space Force Station

Loading…

Prossimi Passaggi (prossime 24 ore)

TLE

AggiornatoSource: CelesTrak SupGP

Epoca: Sep 14, 2026, 20:54 UTC

1 53746C 22107AY  26257.87131944 -.00043946  00000+0 -12986-2 0  2578
2 53746  53.1592 120.3862 0001291  83.7481 173.3585 15.34406037    14

Traccia STARLINK-4589 in tempo reale con AllMySat

Download on the App Store